RH
6 6 7 7 8 8 9 9 10 10 10 11 12 14 14 15 17 17 18 20 22 22 23 24 23 21 18 15 13 12 11 11 10 9 9 9 9 10 11 11 12 12 11 11 11 10 8 8 7 8 7 7 7 7 7 7 6 7 7 9 12 15 19 24 29 34 39 43 46 48 48 47 46 46 46 45 44 43 43 42 42 41 41 42 41 40 40 39 38 36 35 35 35 34 34 34 34
6 6 6 7 7 8 8 8 9 9 10 10 12 14 14 15 16 17 18 18 20 21 23 24 24 23 21 20 18 16 13 12 11 10 10 9 9 9 9 9 10 11 12 12 12 11 10 9 9 8 6 5 6 6 7 7 8 7 7 7 7 8 10 13 16 22 27 33 39 42 43 44 44 45 46 45 44 44 43 43 42 40 40 40 40 40 39 39 38 37 36 36 35 35 34 34 33
6 6 6 7 7 7 7 7 8 8 9 10 11 13 14 15 15 16 18 18 19 20 21 23 24 24 23 23 22 22 19 16 13 12 11 10 10 10 9 9 9 9 10 10 11 12 11 11 12 11 8 7 6 5 6 6 6 7 7 7 7 7 7 8 9 10 13 17 22 28 33 36 38 40 43 45 46 46 46 45 43 42 42 41 41 41 41 40 40 40 40 39 39 38 37 37 35
6 6 7 7 7 6 6 7 7 8 8 9 10 12 13 14 14 15 18 19 19 20 21 22 23 23 24 23 23 25 24 23 19 16 15 12 11 11 10 10 10 9 9 9 9 10 10 11 13 14 12 10 9 8 7 6 6 5 6 6 6 7 8 9 9 9 9 10 11 13 16 19 22 25 29 33 37 39 41 43 43 42 42 42 43 43 43 42 41 41 41 41 40 40 39 37 36
6 6 7 7 7 7 6 7 7 7 8 8 9 10 12 13 13 14 16 20 20 20 21 23 23 23 23 22 22 24 25 26 24 23 21 16 14 12 11 11 11 11 10 10 10 9 9 9 11 13 13 13 13 12 10 9 8 7 7 6 6 6 6 7 8 10 11 11 12 13 13 13 13 13 15 17 20 22 25 29 30 31 31 33 35 36 36 35 34 33 33 33 33 34 33 32 31
6 7 7 7 7 7 7 7 7 7 7 8 8 9 10 12 13 13 15 18 20 21 21 22 23 23 23 22 22 23 24 25 25 26 26 22 21 18 15 13 12 11 11 11 10 10 10 10 10 11 11 12 13 13 13 12 11 11 10 9 8 8 7 7 7 7 8 9 10 11 13 14 13 13 13 14 15 15 16 17 18 18 19 19 21 22 22 22 21 20 20 20 21 21 21 20 19
6 7 7 7 7 7 7 7 7 7 7 8 8 8 9 11 12 13 14 16 18 21 21 21 22 23 23 23 24 23 23 24 24 24 24 24 25 24 22 20 18 14 12 12 11 11 10 10 10 11 10 11 11 11 12 12 12 11 11 11 11 11 10 10 9 8 8 7 7 8 8 9 10 10 10 11 12 12 13 13 13 13 13 13 13 13 13 13 13 13 13 12 12 12 12 11 11
7 6 7 7 7 7 7 7 7 7 8 8 8 8 8 10 11 11 13 15 17 20 21 22 22 23 23 23 24 23 23 24 25 25 23 22 23 24 24 25 25 22 18 15 13 12 11 11 10 10 10 10 10 10 11 11 11 10 10 10 10 11 11 12 12 12 11 11 10 9 9 8 8 8 8 8 7 8 8 8 8 8 8 8 8 8 8 8 8 7 7 7 7 7 7 7 6
7 7 7 7 7 7 7 7 8 8 8 8 8 8 8 8 9 10 11 13 15 18 20 21 21 22 23 23 23 23 24 24 25 26 25 23 22 22 22 23 24 25 24 22 19 16 13 12 11 11 10 10 10 10 10 10 10 10 10 10 10 10 10 10 11 11 12 12 12 12 12 12 11 11 11 10 10 9 9 9 8 8 7 7 7 7 6 6 6 6 6 6 7 7 7 7 7
7 7 7 7 7 7 7 7 7 8 8 9 8 8 8 8 8 9 10 12 13 15 18 19 20 21 22 23 24 24 24 24 24 25 26 25 24 24 23 22 21 22 23 24 24 22 18 14 13 12 12 11 11 11 11 11 10 10 10 10 10 10 10 10 10 10 10 10 10 11 11 12 12 12 12 12 12 12 12 11 11 11 10 10 10 10 9 9 9 9 9 9 9 9 9 9 9
7 7 7 7 7 7 7 7 7 8 9 9 9 9 9 8 8 8 9 11 12 12 15 17 18 20 21 23 24 25 24 24 24 24 25 26 26 25 24 24 23 22 21 22 23 24 23 20 17 15 14 14 13 13 13 12 12 12 11 11 10 10 10 10 10 10 9 9 9 9 9 10 10 10 10 11 11 11 11 10 11 11 10 10 10 10 9 9 9 9 9 9 9 8 9 8 8
7 7 7 7 7 7 7 7 7 8 9 9 9 9 9 9 8 8 8 10 12 12 12 15 16 18 20 22 24 24 24 24 24 24 24 25 26 26 25 24 24 24 23 22 22 22 23 23 22 20 18 18 17 17 17 17 17 16 15 14 13 12 12 11 11 10 10 10 10 10 10 9 9 9 9 9 9 9 9 9 8 8 9 9 8 8 8 8 8 8 8 8 8 8 8 8 8
7 7 7 7 7 8 8 8 8 8 8 9 9 9 10 10 9 8 8 8 11 12 12 13 14 15 18 20 22 22 23 24 23 23 23 24 26 26 26 25 24 24 25 24 23 22 22 22 22 23 22 22 21 21 21 21 21 22 21 20 19 18 17 16 15 13 12 11 11 10 10 10 9 9 9 9 9 9 9 8 8 8 8 8 8 8 8 8 8 8 8 8 8 9 9 10 11
7 7 7 7 8 8 8 8 8 8 9 9 10 10 10 10 9 9 8 8 10 12 12 12 12 13 16 18 20 20 21 23 23 23 23 24 25 25 26 26 25 25 25 25 25 24 24 23 22 22 22 23 23 24 24 24 24 25 25 25 25 25 23 22 21 19 17 15 14 13 12 11 11 10 10 9 9 9 9 9 9 9 9 9 9 10 10 10 11 11 12 13 14 15 16 18 19
7 7 7 8 8 8 8 8 8 8 9 9 10 10 10 9 9 9 8 8 9 11 13 13 12 12 13 16 18 19 19 20 21 22 23 24 24 25 25 26 26 26 26 26 25 25 25 25 24 24 23 23 23 23 24 25 25 26 27 27 28 28 28 27 27 25 23 22 21 20 20 18 17 16 16 16 16 16 15 14 14 14 14 15 16 17 18 18 18 19 20 21 22 22 23 23 23
7 7 7 8 8 8 8 8 8 8 9 9 10 10 10 9 9 9 9 9 10 12 13 13 13 12 11 12 15 17 18 18 19 20 22 23 24 24 24 25 25 26 26 28 28 27 26 26 25 25 25 25 24 24 24 24 24 25 26 27 28 28 28 28 27 27 26 26 25 26 26 26 25 25 25 25 25 24 23 22 22 22 22 22 23 24 24 25 24 24 24 24 25 25 24 24 24
7 7 8 8 8 8 8 8 8 8 9 9 10 10 9 9 9 9 10 10 11 12 13 14 14 13 12 10 12 15 17 18 18 18 19 21 23 23 23 24 24 25 26 28 29 30 30 29 27 26 26 26 26 25 25 25 24 24 24 25 26 26 27 27 27 27 26 26 26 27 27 28 28 28 27 27 27 27 27 26 26 26 25 25 25 26 26 26 27 27 27 27 26 26 25 24 24
7 7 8 8 8 8 8 8 8 8 9 9 10 10 9 9 10 11 11 12 12 13 14 14 15 14 12 11 10 12 14 16 17 17 18 19 22 22 22 23 23 24 24 26 28 31 33 33 32 31 29 27 27 26 26 26 26 25 25 25 24 25 25 25 26 26 27 26 27 27 28 28 28 27 26 26 27 27 28 28 28 27 27 27 28 28 28 28 28 28 28 28 27 25 24 23 21
7 8 8 8 8 8 8 8 8 8 9 10 10 10 9 9 11 12 12 13 13 14 14 15 15 15 13 12 10 11 12 14 16 16 17 18 20 22 22 22 22 23 24 24 25 28 32 35 35 35 35 33 31 29 27 27 26 26 26 26 26 25 25 25 26 26 27 27 27 27 28 28 28 28 28 28 28 29 30 30 30 29 29 29 30 29 29 29 29 29 28 26 24 22 21 19 18
8 8 8 8 8 8 8 8 8 8 9 10 10 9 9 10 11 12 13 13 13 14 15 16 16 16 15 13 11 11 11 13 14 15 16 17 19 22 22 22 22 22 24 25 26 26 29 33 36 37 38 38 36 33 30 29 28 27 27 27 27 27 27 27 27 27 27 27 27 27 28 28 29 29 29 29 29 30 31 31 31 31 31 31 31 30 29 29 29 28 25 22 20 18 17 16 15
8 8 8 8 8 8 8 8 8 8 9 10 10 10 9 10 11 13 13 13 14 14 15 16 17 18 17 16 14 12 11 11 13 14 15 16 19 22 23 23 22 22 22 26 29 29 28 31 35 38 39 39 39 37 34 32 31 31 31 31 31 31 31 31 30 29 28 28 28 28 29 29 30 30 30 30 30 31 31 31 31 32 31 31 30 30 28 28 26 24 22 20 18 17 16 16 16
8 8 8 8 8 8 8 8 8 9 10 11 11 10 9 10 12 13 14 13 14 15 16 17 18 18 18 18 17 15 12 12 12 13 14 16 18 21 22 23 23 23 23 24 29 32 31 31 34 37 39 39 38 38 36 35 35 35 35 36 36 36 36 35 34 32 29 28 28 29 30 30 31 31 31 31 31 31 31 30 30 31 31 30 28 26 25 24 23 21 19 19 18 18 17 17 16
8 8 8 8 8 8 8 9 10 10 11 11 11 10 9 11 12 14 13 14 15 16 17 17 18 18 18 19 19 18 16 13 13 13 14 15 17 19 21 22 22 23 24 24 27 31 32 33 34 36 38 39 38 36 35 34 35 36 36 37 38 39 39 37 36 34 31 28 28 29 31 31 32 32 32 31 31 30 29 29 28 27 27 26 24 23 21 20 20 19 18 18 17 17 16 15 15
8 8 8 8 8 9 9 11 11 12 12 11 11 10 10 11 13 13 13 14 16 16 17 18 18 18 18 18 19 20 18 16 14 14 14 15 17 18 20 21 22 22 24 24 25 28 32 33 33 35 37 39 38 36 34 33 34 34 35 36 37 38 38 37 36 35 34 31 29 28 29 31 32 32 32 30 30 29 29 28 26 25 24 23 22 20 19 18 18 17 16 15 15 14 13 13 13
8 8 9 9 10 10 11 12 12 12 12 11 11 10 10 11 13 13 12 14 16 16 17 18 18 19 18 18 18 20 20 19 17 16 16 16 17 18 19 20 21 22 23 24 24 25 30 32 32 34 36 38 37 35 32 31 31 32 32 32 33 33 34 34 34 35 36 34 32 30 29 30 30 30 30 30 30 30 29 28 27 25 23 22 21 18 17 16 15 15 14 13 13 12 12 12 12
9 9 10 11 12 13 13 13 13 12 12 11 10 10 10 11 12 12 12 15 16 16 18 18 19 19 19 19 18 19 20 20 20 19 18 18 18 18 19 19 20 21 23 24 24 24 27 31 31 32 33 35 36 35 33 32 30 30 29 28 27 28 29 30 31 33 35 34 33 33 32 31 31 30 31 31 32 32 30 29 27 24 22 20 18 16 15 14 13 13 12 12 12 11 11 11 11
12 12 13 13 14 14 13 13 13 12 12 11 11 10 11 11 12 12 12 14 15 16 17 18 19 20 21 20 20 19 20 20 21 21 20 19 19 19 18 19 20 21 23 24 25 24 25 28 31 31 30 31 32 33 33 33 31 31 29 26 24 23 24 26 28 30 32 32 32 32 33 33 32 32 32 33 33 31 29 27 25 21 19 17 15 14 13 12 12 12 11 11 12 12 11 11 11
14 14 14 14 14 14 14 14 13 12 12 11 11 11 11 12 12 11 12 13 14 15 16 18 19 20 21 21 21 20 20 21 21 21 20 19 19 19 20 20 21 22 23 24 25 25 24 26 29 30 29 29 29 29 29 28 28 28 27 26 24 20 19 20 23 26 27 29 30 31 32 33 33 33 32 31 30 28 25 23 20 18 15 14 13 13 13 12 12 12 12 12 12 12 12 12 12
15 15 15 15 15 15 15 14 13 13 12 12 12 11 12 12 12 12 12 12 13 14 15 17 19 20 21 22 21 21 21 21 21 21 20 20 21 21 22 22 24 25 25 25 25 25 25 25 27 29 29 29 29 28 28 26 24 24 24 24 24 21 18 16 17 20 23 25 27 28 30 32 32 31 29 27 25 23 21 19 17 17 15 15 14 14 15 15 15 14 14 14 14 13 13 13 13
16 16 15 15 15 15 15 15 14 13 13 13 13 12 12 12 12 12 12 12 13 14 15 16 18 19 21 22 22 22 21 21 21 21 21 21 21 22 23 23 25 27 27 26 25 25 26 26 27 28 29 29 29 29 29 28 25 23 23 23 24 23 20 16 14 16 19 21 22 23 25 28 28 27 25 23 22 20 18 16 16 16 16 16 16 16 17 17 16 16 16 16 15 14 14 15 15
15 15 15 15 15 15 15 15 14 14 14 14 14 13 13 13 13 13 13 13 13 14 14 16 18 19 20 21 23 23 22 21 21 21 21 21 21 22 23 24 26 28 29 28 27 27 27 27 28 28 28 28 28 29 29 29 27 25 23 23 23 23 21 17 13 14 16 16 19 21 21 22 22 22 22 21 20 19 17 15 15 17 17 18 18 18 17 17 18 18 18 18 17 16 15 16 18
15 15 15 15 15 15 15 15 15 15 15 15 15 14 14 14 14 14 13 13 14 14 14 15 17 19 20 21 22 22 22 22 22 21 21 21 21 22 23 24 25 27 29 30 29 28 28 29 29 29 29 29 29 28 29 28 28 26 24 23 23 22 22 18 14 13 13 14 16 18 19 18 18 19 19 18 17 16 16 16 17 18 19 18 18 18 18 19 20 21 20 20 19 19 19 20 21
15 15 15 14 15 15 15 15 15 15 15 15 15 15 15 15 15 15 14 14 14 14 14 14 16 18 20 20 20 21 22 22 23 22 21 20 20 22 23 24 25 25 27 29 31 30 30 30 30 31 31 31 30 30 29 28 28 27 24 23 23 22 22 20 17 14 13 14 15 17 18 19 18 18 18 17 16 16 17 18 19 20 20 19 19 20 21 23 24 24 23 22 21 21 22 22 23
15 14 14 14 14 14 14 14 14 14 14 15 15 15 15 15 15 15 15 15 14 14 14 14 16 18 19 20 20 20 20 21 22 23 21 20 19 20 21 23 24 24 24 26 29 31 32 33 33 33 33 33 32 31 30 28 27 27 25 23 22 22 22 21 18 16 14 14 15 17 20 21 21 20 20 19 20 20 20 22 22 22 22 22 22 24 26 28 28 27 25 24 24 23 23 23 24
14 14 14 14 14 14 14 14 14 14 14 14 15 15 15 15 15 15 15 15 15 14 15 15 16 17 18 20 20 20 19 19 20 20 20 20 20 19 20 21 22 23 23 24 25 28 31 34 35 35 35 35 34 33 32 31 29 27 26 24 22 22 22 22 21 18 16 15 15 18 21 23 23 23 23 23 23 24 24 25 25 25 25 25 26 28 30 31 31 30 28 27 26 25 25 26 26
14 14 14 14 14 14 14 14 14 14 14 14 15 15 16 15 14 15 15 15 15 15 15 16 16 17 19 20 20 19 18 17 17 17 18 20 21 20 19 19 21 21 22 23 24 25 27 30 33 36 37 36 35 34 34 33 31 30 28 27 25 23 23 23 23 21 19 18 17 19 21 23 24 25 25 26 27 28 28 29 29 28 29 29 30 32 34 35 34 32 30 29 28 29 28 29 29
14 14 14 14 14 15 15 15 15 15 15 15 16 16 16 16 14 14 15 15 15 16 16 17 18 19 20 20 21 20 18 17 16 16 16 18 20 21 20 19 19 20 21 22 23 24 25 27 30 34 36 37 37 36 36 35 35 33 32 30 28 27 26 25 25 24 23 21 20 20 21 23 24 25 26 28 29 31 32 32 32 32 33 33 34 36 37 37 36 34 32 31 31 32 32 32 32
14 14 14 14 14 15 15 15 15 15 16 16 16 17 17 16 15 14 15 15 16 17 18 20 21 21 22 22 21 20 19 18 16 16 15 16 17 20 20 19 19 19 19 20 22 23 24 25 26 29 31 34 35 37 38 38 38 37 35 33 31 30 30 29 28 27 26 25 24 23 23 24 25 26 27 29 31 33 34 35 36 36 37 37 38 39 40 40 38 35 33 34 35 35 35 34 33
14 14 14 14 15 15 15 15 15 15 16 16 17 17 17 17 17 16 15 16 17 18 19 21 22 23 24 23 22 21 19 18 17 16 16 16 16 17 19 20 20 19 18 19 21 23 25 25 24 25 26 28 31 34 37 39 40 40 39 37 35 33 33 33 33 32 31 29 28 27 26 26 26 27 29 30 32 34 36 38 39 40 41 41 42 44 44 41 38 36 35 36 36 36 36 35 34
14 14 14 14 15 15 15 15 15 15 16 16 17 17 17 18 18 17 17 17 17 19 20 21 23 24 24 23 22 21 20 19 18 18 17 17 17 16 17 19 20 19 19 19 19 21 24 25 25 25 25 26 28 30 33 38 40 41 41 40 39 37 36 36 37 38 37 35 33 31 30 29 28 28 30 31 34 36 38 40 42 43 44 45 46 47 45 41 38 37 36 36 36 36 36 36 35
13 13 13 14 14 14 14 15 15 15 16 17 18 17 16 18 19 18 18 18 19 20 21 23 25 25 24 24 23 22 21 20 19 19 19 18 18 17 16 17 18 20 20 19 18 19 21 23 25 28 29 29 30 32 34 36 40 42 42 42 41 41 40 40 41 42 41 40 37 35 33 32 30 30 31 33 35 37 39 41 43 45 46 47 48 48 45 40 38 37 36 36 36 36 36 36 34
12 12 13 13 14 14 14 14 15 16 17 17 18 18 15 16 19 20 20 19 20 21 22 25 28 27 25 26 25 24 23 22 21 20 19 18 18 18 17 17 17 19 19 19 18 18 20 23 27 31 34 36 37 38 39 40 42 43 43 43 43 43 43 42 43 43 44 43 42 40 39 37 36 35 35 36 37 39 40 43 45 47 48 50 50 48 44 41 40 39 38 38 39 38 38 37 36
12 12 12 13 13 14 14 14 15 16 17 18 19 19 17 15 18 20 20 20 20 22 24 26 27 28 28 28 28 26 26 26 24 22 20 20 19 18 18 18 17 18 19 19 19 19 21 24 28 34 40 43 43 43 44 45 46 46 45 45 45 44 45 44 44 44 44 45 46 46 45 43 42 41 40 39 40 41 43 45 48 49 51 52 52 49 45 43 43 43 44 45 45 44 42 41 39
12 12 12 13 13 14 14 15 16 17 19 19 19 21 20 16 17 19 20 20 20 23 26 27 28 29 31 31 29 29 31 31 29 26 24 23 21 20 19 18 18 18 18 18 19 20 21 23 26 31 40 46 47 45 45 46 48 50 49 48 48 47 48 47 47 46 47 49 50 51 50 49 48 46 45 45 44 45 47 49 51 52 54 55 53 50 47 46 47 48 49 50 50 48 46 44 42
12 12 12 12 13 14 15 15 16 18 19 18 18 22 22 18 15 18 19 19 21 23 26 28 29 32 34 34 32 33 36 36 34 31 29 27 26 23 21 20 19 18 19 19 19 20 21 22 23 26 32 40 44 44 44 45 47 49 51 52 52 51 51 51 50 50 51 53 54 55 55 54 53 52 51 50 49 49 51 53 54 55 56 57 55 52 51 51 52 53 54 54 54 52 50 48 46
12 12 12 13 14 14 15 16 17 20 19 16 17 22 24 19 15 17 19 19 21 23 26 28 30 34 38 37 35 37 40 39 38 36 34 33 32 30 27 25 23 21 20 20 20 21 22 23 23 24 27 32 37 40 42 44 44 46 48 51 53 54 54 54 53 54 54 56 57 58 59 59 58 56 55 54 54 55 56 57 57 58 59 59 58 57 57 56 56 57 57 57 57 56 54 52 50
12 12 12 13 14 15 16 17 20 23 19 15 18 22 25 19 14 16 19 19 20 22 26 30 33 38 41 40 38 39 40 40 39 38 37 37 37 36 35 33 31 29 26 25 24 23 23 23 23 24 26 29 33 37 41 44 45 44 45 47 50 53 55 57 57 58 59 59 60 60 61 62 61 60 59 59 59 60 60 60 61 62 63 63 64 64 62 60 59 59 60 61 61 61 60 58 57
12 12 13 14 15 16 18 20 23 24 19 17 20 22 23 20 15 18 20 19 21 23 25 31 37 41 42 42 41 40 39 39 39 38 38 38 38 38 37 36 35 34 33 32 31 29 28 27 26 26 28 32 35 37 41 44 45 44 43 44 46 49 53 56 60 61 62 62 61 62 62 64 65 64 64 64 65 65 63 63 65 66 67 69 69 67 64 61 61 62 65 66 68 68 66 66 65
13 14 15 16 17 18 21 23 24 24 21 19 20 21 20 18 16 19 19 19 22 23 25 30 38 43 41 40 41 40 37 35 35 37 38 38 38 37 36 36 35 35 35 35 34 34 33 32 32 33 35 38 39 40 42 43 43 42 41 41 43 45 48 52 57 60 62 63 63 64 65 67 68 68 68 68 68 67 67 68 70 71 72 73 71 68 64 63 65 68 71 74 76 75 74 73 71
15 16 18 18 19 21 23 23 23 23 22 20 20 20 18 16 17 19 20 20 22 23 25 29 36 43 42 40 41 40 37 33 32 34 35 35 34 33 32 32 33 33 34 34 35 35 36 37 38 39 40 41 41 41 41 42 41 40 39 38 39 41 44 48 53 58 62 64 65 66 68 69 70 71 72 71 70 71 72 73 74 75 76 75 72 69 67 68 70 73 78 81 81 80 79 78 76
18 18 20 20 21 22 23 24 25 24 22 20 19 18 16 15 17 18 19 20 21 22 25 28 35 41 43 42 43 42 39 36 33 33 34 33 32 31 30 29 29 30 31 34 35 36 37 38 38 38 38 38 38 38 38 39 39 38 38 38 38 39 43 48 54 59 63 66 68 69 71 73 74 74 74 74 75 76 76 77 79 80 79 76 73 72 72 73 75 80 85 86 86 86 85 82 81
19 19 21 21 22 24 25 26 26 25 22 19 18 17 16 16 18 18 19 20 21 23 25 28 33 39 41 44 45 44 42 40 36 34 32 31 31 31 30 30 29 29 30 32 33 34 36 36 36 35 35 34 34 34 34 35 36 36 37 37 39 41 45 52 59 63 66 67 69 72 74 75 76 76 76 78 79 80 81 82 83 82 80 78 77 76 77 79 83 88 90 90 90 90 87 84 86
21 21 21 22 23 25 27 28 27 26 23 18 16 17 16 17 17 17 20 21 22 24 26 28 33 36 40 45 46 45 42 39 36 33 31 30 30 31 30 31 31 31 32 32 31 31 31 32 32 32 33 32 32 32 32 33 34 35 36 38 40 45 49 56 61 64 66 68 71 73 75 76 77 78 80 82 83 84 86 86 85 84 83 82 81 81 83 86 91 94 94 93 91 87 84 84 86
23 23 23 25 27 27 29 29 28 28 25 19 16 16 17 17 16 17 20 22 22 23 25 29 33 36 39 44 47 45 40 36 33 32 32 31 31 31 31 31 31 32 32 32 31 30 29 29 30 30 31 30 30 30 30 30 32 33 36 39 44 50 55 60 63 65 66 69 72 75 77 79 81 83 85 87 89 90 90 89 88 86 86 85 86 88 92 94 97 96 94 91 88 84 83 83 83
24 25 27 29 30 29 30 31 31 31 29 22 17 17 17 16 16 18 20 20 21 24 27 30 34 37 39 42 43 41 38 36 34 34 34 34 32 32 32 32 32 31 30 30 29 28 28 28 29 30 30 29 29 29 29 30 31 32 36 41 48 55 60 64 66 68 70 72 76 79 82 84 86 89 91 93 94 93 92 91 90 89 89 91 94 97 98 99 98 95 92 89 86 82 80 79 77
28 31 32 32 33 32 33 34 34 33 31 25 20 18 16 16 17 19 19 20 22 24 27 31 34 37 39 42 43 41 37 36 36 37 37 35 33 32 33 33 32 31 29 28 28 27 27 28 29 30 30 30 31 31 32 33 33 35 40 46 54 61 65 67 69 71 73 76 80 84 88 91 93 95 96 96 95 94 94 93 93 94 95 98 101 101 100 99 96 94 94 90 83 75 73 75 74
39 40 38 36 36 36 36 36 35 35 34 31 26 20 15 15 17 17 18 20 20 23 28 30 30 34 39 42 42 40 37 35 35 37 37 35 34 32 32 31 31 30 29 28 28 27 27 28 28 29 30 31 31 32 33 35 37 40 45 53 60 65 69 71 71 73 74 78 82 86 90 93 96 98 98 98 97 96 95 96 97 99 100 101 103 103 102 99 97 98 94 83 72 70 74 76 71
48 48 43 38 38 40 41 39 34 35 37 36 33 25 14 13 17 16 17 21 20 22 27 28 27 31 37 41 42 39 37 36 34 35 36 35 33 32 31 30 30 30 29 29 29 28 27 27 27 28 29 30 30 31 32 35 39 43 49 57 63 67 70 72 73 74 75 77 81 85 89 92 96 99 98 98 97 97 97 99 100 100 101 101 102 103 102 99 99 97 85 71 69 75 78 74 68
Wind_Speed
10 9 9 9 10 11 12 14 14 14 14 14 14 13 12 12 12 12 11 11 11 12 12 12 13 13 12 10 8 8 7 7 6 6 7 8 9 10 10 10 11 10 10 9 9 9 9 9 10 10 8 7 6 6 6 5 4 4 6 7 8 8 9 9 9 9 9 9 9 9 9 8 8 8 8 8 8 8 8 7 7 6 6 6 5 5 5 5 5 4 4 3 2 2 3 3 3
9 8 8 8 9 11 12 13 14 13 14 14 14 13 12 11 12 12 12 11 11 11 11 12 12 12 12 12 11 10 7 6 5 6 6 7 8 9 9 9 10 10 10 10 9 8 8 8 8 8 7 7 7 8 8 7 6 5 4 3 4 5 6 7 8 9 10 10 10 10 9 9 9 9 9 9 8 9 8 8 7 6 6 6 5 5 4 4 4 3 3 2 2 2 2 3 3
7 7 8 8 8 10 12 13 13 13 13 13 13 12 11 11 11 12 12 11 10 10 11 11 11 11 12 12 12 12 9 8 6 6 6 6 6 6 7 7 8 8 9 9 9 8 8 7 7 6 6 6 7 8 8 7 7 6 6 5 4 4 4 4 5 6 7 8 9 9 10 10 10 10 9 9 8 8 8 7 7 7 6 6 5 5 5 4 4 4 4 4 4 4 4 5 5
6 6 7 7 7 9 11 12 12 12 12 13 13 11 10 10 11 11 12 12 10 9 10 10 10 10 11 11 11 11 11 10 8 8 7 6 5 5 5 5 6 6 6 7 7 7 7 7 7 7 6 6 7 7 7 6 6 6 6 5 5 5 5 5 4 4 4 4 5 6 7 8 9 10 10 10 10 9 9 9 8 8 8 8 7 7 7 7 7 7 7 7 7 7 8 8 8
5 6 6 6 7 8 10 11 10 10 12 12 12 11 10 10 10 11 11 11 11 10 9 9 9 9 9 9 11 11 10 10 9 10 8 7 6 5 4 3 4 4 4 4 4 5 5 5 6 7 7 7 8 7 6 5 5 4 4 4 5 4 4 5 5 4 4 3 3 3 2 3 4 5 6 7 8 9 9 9 10 10 10 10 10 10 10 10 9 10 10 10 10 10 10 10 10
5 5 5 5 6 7 8 10 9 9 11 11 11 10 10 9 9 10 10 10 10 10 9 8 8 8 8 9 10 10 9 9 9 9 8 8 8 7 5 4 3 2 1 1 2 2 3 4 5 6 6 6 7 6 6 5 5 5 4 4 4 4 4 4 3 3 3 3 3 3 3 3 2 2 3 3 3 4 5 5 6 6 7 7 8 8 8 8 8 7 7 8 8 8 8 9 9
4 4 4 4 5 6 7 8 8 9 10 10 10 10 10 9 8 8 9 9 9 9 9 9 8 7 7 8 9 8 9 9 9 8 7 7 8 7 7 7 5 3 2 1 1 1 1 2 3 3 4 4 4 4 4 4 4 4 4 4 4 3 3 3 2 2 1 1 1 2 2 2 1 1 1 2 2 2 3 3 3 4 4 4 5 5 5 5 4 4 4 4 5 5 6 6 7
4 4 4 4 4 5 6 7 7 8 9 8 8 9 9 9 8 8 8 8 8 8 9 8 8 7 7 7 7 7 8 8 8 7 7 7 6 6 6 7 6 6 5 4 3 2 1 1 1 1 2 2 2 2 2 2 2 2 2 2 3 3 2 2 1 1 1 1 1 1 1 1 0 1 1 1 1 2 2 3 3 3 4 4 4 4 4 4 4 4 4 4 5 5 6 6 6
4 4 4 3 3 4 5 5 6 7 7 7 7 7 8 8 9 9 8 7 7 6 7 7 7 7 7 6 6 6 6 7 7 7 7 6 6 6 5 5 4 5 5 5 5 4 2 2 1 0 1 1 1 1 1 1 0 0 1 1 0 1 1 1 1 0 0 0 0 1 1 1 1 1 2 2 2 2 3 3 4 4 4 5 5 5 5 5 5 5 5 5 5 6 6 6 7
5 4 4 3 2 3 4 4 5 6 6 6 5 6 7 7 8 9 8 7 6 5 5 5 6 6 6 6 5 5 5 5 5 6 6 6 6 6 5 5 4 3 3 4 4 4 3 2 1 0 1 1 1 1 2 1 1 2 2 2 2 2 2 3 3 2 2 2 2 1 2 2 2 2 2 3 3 3 4 4 5 5 5 5 5 5 5 5 5 5 5 5 6 6 6 7 7
6 5 5 3 1 2 3 3 4 5 5 5 5 6 6 7 7 8 9 8 7 5 4 4 5 5 5 5 5 4 4 5 5 5 5 5 5 5 5 5 4 4 3 2 2 2 2 2 1 0 1 1 1 2 2 2 2 2 3 3 3 3 4 4 4 5 5 5 4 4 4 4 4 5 4 4 5 5 5 6 6 6 6 6 6 6 6 6 6 6 6 6 7 7 7 7 8
7 5 5 3 1 1 2 3 4 4 4 5 6 7 7 7 7 7 9 8 7 6 4 3 4 4 4 4 4 3 4 4 4 4 4 4 4 5 4 4 4 4 4 3 3 2 2 2 2 1 1 1 1 2 2 2 3 3 3 3 3 3 4 5 6 6 6 6 6 6 6 6 7 7 7 7 7 8 8 8 8 8 8 8 8 8 8 8 8 8 8 8 8 8 8 8 8
7 6 5 4 2 0 1 2 3 4 4 4 6 8 8 8 7 7 8 8 7 7 5 4 4 4 4 3 3 3 3 4 4 4 4 4 4 4 5 5 4 4 4 4 4 4 3 3 3 3 3 3 2 3 3 3 3 3 3 3 4 4 4 5 6 7 7 7 8 7 8 8 8 9 9 9 9 10 10 10 10 9 9 10 10 9 9 10 9 9 9 9 9 8 8 8 8
9 7 6 4 3 2 2 2 3 3 4 5 6 8 9 9 8 8 7 8 8 8 7 6 5 4 4 4 4 4 4 4 4 5 5 5 5 5 5 5 5 5 5 5 5 5 5 4 4 4 4 5 4 4 4 5 5 4 4 4 4 5 5 6 6 7 7 8 8 8 8 9 9 9 9 10 10 10 11 11 10 10 10 10 10 9 9 9 9 8 8 8 8 8 7 7 7
9 8 6 5 4 4 4 3 3 3 4 5 6 8 9 9 9 9 8 8 8 9 8 7 6 5 5 5 5 5 5 4 5 5 6 6 6 6 6 6 6 5 5 5 5 6 6 6 5 5 5 6 6 6 6 7 7 6 6 6 6 6 6 6 7 7 8 7 7 7 7 8 8 8 8 8 9 9 9 10 9 9 8 8 8 8 8 8 8 7 7 8 8 8 8 8 8
10 9 7 6 6 6 5 5 5 5 5 5 7 8 9 9 10 10 9 8 8 8 9 8 7 6 5 5 6 7 6 6 6 6 6 7 7 7 7 7 7 6 6 6 6 6 7 7 7 7 7 7 7 7 7 8 8 8 8 8 8 8 8 8 9 9 9 8 8 8 8 8 7 7 7 8 8 8 9 9 9 8 8 8 8 8 8 8 8 9 9 9 9 9 9 10 10
11 10 9 8 8 7 7 7 6 6 7 7 8 8 9 9 10 10 10 9 8 8 9 9 8 7 7 6 7 8 8 7 7 7 7 8 8 8 8 8 8 7 7 7 7 7 7 7 8 8 8 8 8 8 8 9 9 9 9 10 10 10 10 10 11 11 10 10 10 9 9 9 9 9 9 9 9 10 10 10 10 10 10 10 10 10 10 10 10 10 11 11 11 11 11 11 11
11 11 10 9 9 9 8 8 8 8 8 9 9 9 9 9 9 9 10 10 9 8 9 9 9 8 8 7 7 8 9 9 9 8 8 8 9 9 9 9 9 9 8 8 8 8 8 8 8 8 8 9 9 9 9 9 10 10 10 11 11 11 12 12 12 12 11 11 11 11 10 10 10 11 11 11 11 11 12 11 12 12 11 12 12 12 11 12 12 12 12 12 12 12 12 12 12
12 12 11 10 10 9 9 10 10 10 10 10 10 9 9 9 9 9 10 11 10 10 10 9 9 8 8 8 8 9 10 10 10 10 9 9 10 10 10 10 10 10 10 9 9 9 9 9 8 8 9 9 10 10 10 10 10 11 11 12 12 12 13 13 13 13 13 12 12 12 12 12 12 12 12 12 12 13 13 13 13 13 13 13 13 13 13 13 13 13 13 13 13 13 13 13 13
13 13 12 12 11 11 10 11 11 11 11 11 11 10 10 10 10 10 10 11 12 12 11 11 10 9 9 9 9 9 10 11 11 11 10 10 11 11 11 11 11 11 11 11 10 10 10 10 9 9 9 9 10 10 10 10 11 11 11 12 12 12 12 13 13 13 14 14 14 14 14 14 14 13 13 13 13 14 14 14 14 14 14 14 15 15 15 15 15 15 14 14 14 14 14 15 15
14 14 13 13 12 11 11 12 12 13 12 12 12 11 10 10 10 11 11 12 12 12 12 12 12 11 11 10 10 10 10 11 12 12 11 11 11 12 12 12 12 12 13 12 12 11 11 11 10 10 10 10 10 10 10 10 11 11 11 11 11 11 12 12 13 14 14 15 16 15 15 15 14 14 14 13 14 14 15 15 15 15 15 16 16 16 16 16 16 16 16 16 16 16 16 17 17
14 14 14 13 13 12 12 13 13 13 13 13 12 11 10 11 11 11 12 12 12 12 12 12 12 13 12 12 12 11 11 12 12 13 13 13 12 12 13 13 13 13 14 13 13 13 12 11 11 11 11 11 11 11 11 11 11 10 10 10 11 11 12 12 13 14 15 15 16 15 15 15 15 15 15 14 14 15 16 16 16 17 17 17 18 18 18 18 17 17 17 18 18 19 19 19 20
15 14 14 14 14 13 13 14 14 14 14 13 12 11 11 11 12 12 12 12 13 12 13 12 12 13 13 13 13 13 13 13 14 14 14 14 13 13 14 14 14 14 14 14 14 14 13 12 12 12 12 12 12 12 12 12 12 12 11 11 11 12 12 13 14 14 15 15 15 15 15 15 15 15 15 15 15 16 17 17 18 18 19 19 19 19 19 19 19 19 19 20 20 21 21 22 23
15 15 15 14 15 15 15 15 14 15 14 13 13 12 11 12 12 13 12 12 13 13 13 14 13 13 14 14 15 15 15 15 16 16 15 15 15 15 15 15 15 15 15 15 15 15 14 13 13 13 14 13 14 14 13 13 13 13 14 14 14 14 14 14 15 15 15 15 15 16 16 16 16 16 16 16 16 17 17 18 19 19 20 20 20 21 21 21 20 20 21 21 22 23 23 24 25
16 15 15 15 16 16 16 16 15 15 14 13 13 12 12 12 14 14 12 12 13 13 14 15 15 15 15 15 16 16 16 16 17 17 17 17 16 16 16 16 15 16 16 16 16 15 15 14 14 14 15 15 15 15 15 15 15 15 16 16 16 16 16 16 16 15 16 16 16 16 16 17 17 17 17 17 17 18 18 18 19 20 20 20 21 22 22 22 21 21 21 22 23 24 25 26 27
16 16 16 16 17 17 17 16 14 14 14 14 14 13 12 13 15 15 12 12 13 14 15 16 17 16 15 15 16 16 16 17 17 18 18 18 18 17 17 16 16 16 16 16 16 16 15 15 15 15 16 16 17 17 17 17 17 17 18 18 18 18 18 18 17 17 17 18 17 17 17 17 18 18 17 17 18 18 19 19 19 20 21 21 22 22 22 22 22 21 22 22 23 24 25 26 28
17 16 16 17 17 17 17 16 14 14 14 15 15 13 13 13 16 16 13 13 14 14 15 16 17 17 16 15 16 16 17 17 17 18 19 19 18 17 17 17 17 17 17 17 16 16 16 16 16 15 16 17 17 18 18 19 19 18 19 19 19 20 19 19 19 19 19 19 19 19 18 18 19 19 19 18 18 19 19 19 20 21 21 22 22 22 23 22 23 23 23 23 24 25 26 27 28
16 16 16 16 17 17 17 15 14 14 15 15 15 14 13 14 16 17 14 13 14 14 15 16 17 17 17 17 16 16 17 17 18 19 19 19 18 18 19 19 18 18 18 17 17 16 16 16 16 17 16 16 17 18 19 19 20 19 19 19 20 20 20 20 20 21 21 21 21 21 20 20 20 20 21 20 20 20 21 21 21 22 22 22 22 22 22 23 24 24 24 25 25 26 27 28 29
16 16 16 16 16 16 16 16 14 14 15 16 16 14 14 16 17 17 16 14 15 15 16 16 17 18 18 18 17 17 16 17 18 19 20 20 20 20 20 19 19 19 18 18 18 17 16 16 17 18 18 18 18 18 19 19 20 19 19 19 19 20 20 20 21 22 22 21 22 22 21 21 22 22 23 23 22 22 22 22 21 21 22 22 22 23 23 24 25 25 25 26 27 28 28 29 30
15 15 15 15 15 15 15 15 14 14 15 16 17 14 14 18 17 17 17 16 15 16 16 17 18 19 19 20 19 19 18 18 20 20 21 21 21 21 21 20 20 20 19 19 19 19 18 17 17 18 19 20 20 20 20 20 20 20 20 19 19 20 20 20 21 21 22 22 22 23 22 22 23 23 24 23 23 22 22 22 22 22 23 23 23 24 24 25 26 26 26 27 28 29 29 29 30
16 15 15 15 14 14 15 15 14 15 15 16 17 14 13 19 19 17 18 17 17 17 17 19 19 20 20 21 21 21 20 20 21 22 23 23 22 22 21 21 21 21 20 20 20 20 19 19 19 19 20 20 21 21 21 21 21 22 21 20 20 20 20 21 21 21 21 22 21 22 23 23 23 23 23 23 23 23 23 23 23 23 24 24 25 25 26 26 26 27 27 28 29 30 30 30 29
17 17 16 15 15 15 15 16 16 17 17 17 18 15 13 18 19 19 19 18 18 18 19 20 21 22 22 22 22 23 23 22 23 24 25 25 24 23 22 22 22 22 22 21 21 22 21 21 21 21 21 21 21 22 22 22 22 23 23 22 21 21 21 21 21 21 21 21 21 22 23 23 23 22 23 23 23 24 24 24 24 24 25 26 26 26 27 27 28 28 29 30 30 30 30 29 28
20 19 17 17 17 17 18 18 19 19 19 18 19 16 14 17 20 20 20 20 20 20 20 21 22 23 23 23 23 24 24 24 24 25 26 26 25 24 23 23 23 23 23 23 23 23 23 22 23 23 23 23 23 23 23 23 23 24 24 23 23 22 22 21 22 22 22 22 21 21 22 22 23 23 23 24 24 25 25 25 26 26 26 27 27 27 28 28 29 30 31 31 31 31 30 29 29
22 21 19 20 20 20 20 21 22 22 22 21 21 18 16 18 21 21 21 21 20 21 21 22 23 24 25 25 25 25 26 26 27 28 27 26 26 26 25 24 24 24 24 24 24 24 24 24 24 25 24 24 25 25 25 25 24 24 25 25 24 24 24 23 24 24 24 23 23 22 22 23 24 24 24 25 25 26 26 26 27 28 28 28 29 29 29 30 31 32 33 33 33 32 32 31 31
23 22 22 23 23 22 22 23 25 25 25 24 24 21 18 20 22 23 23 22 21 21 22 24 25 25 26 27 27 27 27 27 29 30 29 28 28 27 27 26 26 26 25 25 24 25 26 26 26 26 26 26 26 26 26 26 26 25 25 26 26 25 25 26 26 26 26 26 25 24 24 25 25 25 26 26 27 28 28 28 29 29 30 30 31 31 31 32 33 34 34 34 34 33 33 33 33
25 25 25 24 24 24 24 26 27 28 28 26 26 25 22 21 22 24 26 24 23 23 24 25 26 27 28 28 28 28 28 29 30 31 30 30 30 29 28 28 28 27 27 26 25 26 27 27 27 27 27 27 28 28 28 28 28 27 26 27 27 27 27 27 28 28 28 28 27 27 27 27 27 27 28 28 29 29 30 30 31 31 31 32 32 33 33 34 35 35 35 35 35 34 34 34 35
27 27 26 26 25 25 26 28 29 30 30 28 28 28 25 22 22 24 27 26 24 25 26 26 27 28 29 29 28 29 30 31 31 31 31 31 31 31 30 29 29 29 28 27 27 27 27 28 28 29 29 29 29 29 29 29 29 29 28 28 28 28 28 28 29 29 30 30 30 30 30 30 29 30 30 30 31 31 31 32 32 33 33 34 34 35 35 36 36 37 37 36 36 35 35 36 37
29 29 28 28 28 27 28 30 30 32 33 31 30 31 29 26 25 24 26 27 26 27 27 27 27 29 30 29 29 29 30 31 32 32 31 31 31 32 32 31 30 30 30 29 29 28 29 29 29 30 31 31 31 31 31 30 30 30 30 30 30 29 29 30 30 30 31 31 31 32 32 32 32 32 32 32 33 33 33 33 34 34 35 35 36 36 37 37 38 37 37 36 36 36 37 38 39
30 30 30 30 30 30 30 31 32 33 35 34 33 34 32 29 28 26 26 27 27 28 28 27 28 30 30 30 31 31 31 31 32 33 32 32 31 32 32 32 32 32 32 31 30 30 30 30 30 31 32 32 32 32 32 32 32 32 32 31 31 31 31 31 31 31 32 32 33 34 35 35 35 35 35 35 35 35 35 35 35 36 36 37 37 37 38 38 38 37 37 37 37 38 38 39 41
32 32 32 32 31 32 32 32 33 34 36 36 36 37 36 32 31 28 27 29 28 29 29 29 30 30 30 31 32 32 32 32 33 33 34 33 32 31 32 32 32 32 33 32 32 31 31 31 31 32 32 32 33 33 33 33 33 33 33 33 32 33 32 32 32 32 33 34 34 35 36 37 37 37 37 37 36 36 36 36 37 37 37 38 38 38 39 38 38 38 38 38 39 39 40 41 43
34 34 34 33 33 33 33 33 34 34 36 38 39 42 40 35 33 29 28 31 30 30 31 31 31 32 32 33 32 32 33 33 33 33 34 34 34 33 32 32 32 33 33 34 33 32 32 32 32 32 32 32 32 33 33 34 34 34 33 33 33 33 33 34 34 34 35 35 36 37 37 38 39 39 39 38 38 38 38 38 38 38 39 39 39 39 39 39 38 38 38 39 40 41 42 43 45
36 35 35 35 34 34 35 35 35 35 37 38 40 46 45 38 34 31 30 33 31 30 31 31 32 33 34 34 33 34 34 33 33 32 33 34 35 34 33 32 32 33 34 34 34 33 33 32 32 32 32 32 32 32 32 33 34 34 34 33 33 34 34 35 35 35 36 37 37 37 38 39 39 40 40 40 41 40 40 40 40 40 40 41 40 40 39 39 38 38 39 40 42 43 44 45 47
37 36 36 36 36 36 36 36 37 37 38 39 41 47 49 43 36 33 34 34 32 31 32 32 33 34 35 34 34 34 34 33 32 32 32 33 34 34 34 34 33 34 34 35 34 34 33 33 33 32 31 32 32 32 32 33 33 34 34 34 34 34 35 36 36 37 37 37 38 38 39 39 40 41 42 42 42 41 41 41 41 41 42 42 41 40 40 39 39 40 41 43 44 45 46 47 48
39 37 37 37 37 37 38 37 37 38 40 42 44 47 51 49 39 35 36 34 33 33 33 34 34 34 34 34 34 34 33 32 31 31 32 33 33 33 34 34 34 34 34 35 35 34 34 34 33 33 32 32 33 33 33 33 33 34 35 35 35 35 36 37 37 38 38 38 39 39 39 40 41 42 43 43 43 42 42 42 42 43 43 42 42 41 41 41 41 42 44 45 45 46 47 48 49
39 38 38 38 38 38 38 38 38 38 41 45 46 46 50 52 44 38 37 34 35 35 35 36 35 34 33 33 33 33 31 31 30 31 32 33 33 34 34 33 33 33 34 34 35 35 34 34 34 34 33 34 35 35 34 33 34 35 36 36 36 37 37 38 38 39 39 40 40 40 41 41 42 43 43 43 43 43 43 43 44 44 43 43 43 43 43 43 44 45 46 46 47 48 49 49 50
40 40 41 40 39 39 38 38 38 40 44 46 46 47 50 53 49 42 38 36 37 38 37 37 36 34 32 32 32 31 29 29 30 31 32 33 34 34 34 34 34 34 34 35 35 35 35 35 35 35 35 35 36 36 35 34 35 35 36 37 38 38 39 39 40 40 40 41 41 41 42 42 43 43 43 43 43 43 44 44 45 45 44 44 44 45 45 45 46 47 47 48 49 50 51 51 53
42 42 42 41 40 39 38 38 39 43 48 47 47 49 51 55 53 44 40 39 40 40 39 37 35 33 32 31 30 29 29 30 30 31 32 33 33 33 34 34 34 35 35 36 36 36 37 36 36 36 35 36 36 36 36 36 36 36 37 38 39 40 40 41 42 42 42 42 42 43 43 44 44 44 43 43 43 44 45 45 45 45 45 46 46 46 47 47 48 49 49 50 51 52 53 54 55
44 43 42 41 40 39 38 40 42 47 49 48 50 52 53 58 55 47 43 42 41 42 41 38 34 32 31 30 29 30 30 31 31 31 32 32 33 33 33 33 33 33 34 35 36 36 36 36 36 36 36 36 37 37 37 37 37 38 38 39 40 41 42 42 43 43 44 44 44 44 44 44 44 43 43 43 44 45 46 46 46 46 47 47 48 48 48 49 50 51 51 52 53 53 54 56 57
43 42 40 40 40 41 42 44 46 49 49 49 53 55 57 60 55 48 45 43 43 42 42 42 37 32 31 30 30 31 32 33 33 33 32 32 33 33 33 33 33 34 34 34 35 35 35 35 35 35 36 37 37 38 38 38 39 40 40 40 41 42 43 43 44 44 44 44 44 44 44 44 44 43 44 44 45 46 46 47 47 47 48 49 49 49 50 51 52 52 53 53 54 55 56 58 58
42 40 39 40 40 43 45 47 49 50 49 50 55 58 60 59 53 48 45 43 44 42 41 43 40 33 30 30 30 31 33 34 35 35 34 33 33 33 33 34 34 35 36 36 36 35 35 35 35 36 36 37 38 38 39 39 40 41 42 42 43 43 44 44 44 44 45 45 44 44 44 44 44 44 44 45 46 46 47 48 48 49 49 49 50 51 52 53 53 54 54 55 56 57 58 59 59
43 42 42 43 42 44 47 48 50 51 51 53 57 60 60 58 53 50 46 44 44 43 42 43 42 36 32 30 30 31 33 34 35 35 35 34 33 33 33 34 34 35 35 36 37 37 36 36 37 37 37 38 39 40 40 41 42 42 43 44 44 44 44 44 44 44 44 44 44 44 43 43 44 44 45 45 46 47 48 49 49 50 50 50 51 53 54 55 55 56 56 57 58 59 60 60 61
45 44 45 45 43 44 46 48 50 53 56 58 59 60 59 57 55 52 49 46 45 45 44 43 41 38 34 32 32 33 33 34 34 34 34 34 34 34 34 34 35 35 35 35 36 37 37 38 39 39 40 40 41 41 41 42 42 43 43 44 44 44 44 43 43 43 43 43 43 43 43 43 44 44 45 46 47 48 49 50 50 51 51 52 53 55 56 57 58 58 58 59 60 60 61 62 62
47 47 47 46 44 45 47 50 53 56 60 60 59 60 59 58 56 53 50 49 47 46 45 43 41 38 36 36 35 35 35 35 36 35 35 35 35 34 34 35 35 35 36 36 36 37 38 39 40 41 41 40 40 40 41 41 42 42 42 42 42 42 42 42 42 43 43 43 43 42 43 43 44 45 45 46 48 49 50 51 51 52 53 54 56 57 58 59 59 60 60 61 61 62 62 63 64
49 49 48 46 47 49 50 53 55 57 61 62 61 62 61 60 58 53 52 51 49 48 45 42 40 37 37 38 36 35 36 36 36 36 36 36 35 35 34 34 35 35 36 36 37 38 38 39 39 40 39 39 39 39 40 40 41 41 41 40 39 39 40 41 41 42 42 42 42 42 42 43 44 45 46 47 49 50 51 52 53 54 55 56 58 59 60 60 61 61 62 62 63 64 64 64 65
52 52 50 49 51 53 53 55 57 58 62 64 63 63 63 61 58 54 53 52 50 48 45 42 39 36 37 38 37 37 38 38 38 37 36 36 37 36 35 35 35 35 36 36 37 38 38 39 39 39 39 39 39 39 39 40 40 40 40 39 38 38 39 40 41 41 41 41 41 42 42 44 45 46 47 49 50 51 52 53 54 56 57 58 59 61 61 61 62 62 63 64 65 65 65 66 67
55 53 53 53 54 56 57 58 59 60 63 65 65 64 61 59 57 55 54 53 52 49 46 43 38 35 36 37 38 39 40 40 39 37 36 37 38 38 36 35 35 36 37 37 37 38 38 39 39 39 39 39 39 39 39 39 39 39 39 38 38 38 39 40 41 41 42 42 42 43 44 45 46 47 49 50 51 52 54 55 56 57 59 60 61 62 62 62 63 64 65 66 66 66 66 67 68
56 55 56 57 58 59 61 61 62 63 64 66 67 66 60 57 58 57 53 53 52 49 47 44 37 33 34 35 36 38 40 40 39 37 37 37 39 39 37 37 37 37 38 38 38 38 38 39 39 39 39 40 40 40 40 40 40 39 39 38 38 38 39 41 41 42 43 43 44 45 45 46 47 48 50 51 52 54 55 56 58 59 61 62 62 63 63 64 64 66 67 67 67 67 68 68 69
59 59 60 61 62 62 63 65 67 67 66 66 68 67 59 54 57 56 52 52 52 48 45 43 39 34 32 32 35 38 39 40 39 38 39 40 40 41 40 39 38 37 38 38 37 38 38 39 39 39 39 40 40 41 41 41 41 40 40 39 39 39 40 41 42 43 44 45 45 46 47 48 48 50 51 52 54 55 57 58 60 61 62 63 63 64 65 65 66 68 69 69 69 69 69 69 69
Wind_Direction
85 83 78 74 73 72 70 69 68 65 64 64 61 58 52 50 55 59 62 64 62 61 58 55 55 57 60 63 65 63 59 55 53 50 51 54 55 57 57 56 59 62 61 59 59 56 57 63 68 70 74 81 90 99 108 124 149 180 201 208 211 213 212 209 206 205 202 199 196 196 196 196 197 196 195 195 192 190 193 193 195 196 196 194 192 192 190 193 199 206 214 223 233 251 266 275 281
88 86 82 76 71 69 66 65 66 63 62 62 62 59 50 45 50 56 61 65 65 64 62 58 54 53 56 58 58 58 57 49 40 39 40 46 50 53 54 53 54 56 58 59 58 57 55 58 66 72 75 78 81 85 89 93 98 107 124 155 186 204 211 213 214 214 215 212 208 206 206 207 208 208 206 204 200 197 196 195 196 197 197 195 194 196 195 197 203 210 218 227 241 260 277 288 297
94 92 84 76 69 66 63 63 64 61 59 58 59 59 52 43 43 52 58 64 66 66 64 59 54 51 51 53 57 56 56 48 36 34 31 34 40 43 48 50 51 49 50 53 55 56 56 57 64 75 79 78 76 75 75 76 79 82 86 94 107 128 155 175 196 210 219 222 221 220 221 223 224 224 223 221 219 216 213 211 211 213 214 215 216 219 222 225 230 237 244 253 263 272 279 285 288
102 96 85 75 67 63 61 62 62 61 58 54 55 55 51 41 38 46 54 61 63 61 62 60 54 52 50 50 55 54 53 48 42 43 34 26 30 34 38 45 48 45 43 43 46 48 52 55 59 66 70 72 69 66 65 65 67 68 71 76 84 94 105 118 132 151 178 197 208 216 224 230 234 235 236 237 237 237 237 236 236 237 238 239 240 243 245 248 252 255 259 262 266 271 276 279 279
113 102 91 79 65 59 57 59 58 57 57 54 51 49 46 39 34 39 49 59 62 59 60 60 55 51 49 50 53 51 49 46 45 48 41 33 35 34 32 43 48 48 45 39 40 36 37 42 50 55 54 56 57 59 58 55 56 56 56 59 64 71 80 89 99 108 117 126 135 144 160 194 217 225 230 235 238 240 242 244 246 247 248 248 249 251 252 254 257 258 260 262 264 267 271 275 277
127 110 99 86 70 61 57 56 53 50 52 51 48 44 40 36 29 30 40 51 59 62 62 62 58 52 47 49 52 48 48 45 43 45 41 41 43 40 38 44 48 48 63 62 53 36 27 31 38 45 45 48 51 54 54 50 48 46 45 45 47 47 53 62 71 84 95 104 109 112 114 122 136 150 163 178 195 213 224 229 233 236 239 240 241 244 246 248 251 253 256 260 263 266 269 274 278
141 122 107 93 77 68 59 57 54 48 48 45 41 39 36 33 24 23 30 37 46 53 58 59 56 51 46 46 50 48 49 46 43 41 37 41 45 42 41 45 44 37 38 42 41 18 28 37 39 45 46 47 52 57 55 47 42 42 41 37 38 39 42 44 48 60 74 88 96 100 106 114 125 131 142 153 161 180 199 208 209 211 217 220 224 228 231 235 238 242 246 251 255 261 266 270 275
153 134 122 106 86 73 64 58 54 49 48 42 34 33 32 27 19 19 25 28 35 40 45 53 54 51 49 47 47 47 48 45 43 41 35 37 42 41 41 43 44 42 40 37 29 8 355 23 43 57 58 53 61 72 69 58 45 39 34 27 33 37 37 38 40 48 59 68 76 87 103 128 170 228 242 226 205 208 219 228 229 223 220 222 225 227 229 230 234 236 240 244 248 254 260 265 268
169 154 145 131 104 81 69 57 53 49 45 38 26 23 24 19 13 15 20 23 31 36 35 42 51 52 51 49 46 43 44 43 39 35 31 28 32 32 31 32 37 42 45 45 41 27 13 12 28 74 119 141 129 112 114 121 129 219 254 269 309 1 335 320 322 338 49 110 124 125 146 168 196 224 244 249 241 233 235 238 242 242 236 234 235 237 238 238 240 242 245 249 253 257 261 265 268
185 177 171 159 126 83 69 50 48 50 41 28 15 12 14 9 4 7 12 16 20 29 29 27 39 45 46 47 44 39 35 41 40 32 26 19 19 18 15 11 12 22 33 41 43 39 32 29 41 135 175 169 157 154 160 169 188 215 226 230 228 235 254 260 261 260 253 247 237 222 216 209 212 220 227 239 243 238 236 239 242 246 248 247 250 252 254 253 254 253 255 258 261 264 267 272 276
196 193 189 183 140 74 60 41 37 45 38 16 0 0 2 358 353 355 360 6 7 11 14 10 19 26 33 38 37 34 26 31 36 32 22 11 5 1 359 353 351 356 359 3 8 18 21 18 20 337 191 172 171 177 174 175 186 207 221 228 232 234 245 253 253 252 251 250 248 244 242 238 236 235 233 238 246 246 243 243 245 250 254 256 258 260 262 262 264 264 266 269 270 273 275 278 281
204 208 207 203 165 69 40 29 21 28 31 7 348 346 348 346 343 344 347 352 356 355 352 347 355 0 10 20 21 22 17 14 17 19 17 6 350 339 338 335 335 336 334 331 325 320 310 307 302 292 276 237 216 215 202 194 199 209 220 227 233 235 243 253 256 254 253 253 252 250 250 248 246 246 244 244 248 251 251 250 251 254 257 260 261 262 265 267 269 270 272 275 277 279 279 279 280
208 213 215 216 210 177 5 2 359 8 14 355 339 335 335 333 332 335 336 338 343 346 341 332 326 330 338 345 350 357 0 0 358 358 359 358 343 328 321 318 317 316 314 313 310 303 293 285 279 278 278 270 257 249 243 235 230 227 229 233 234 233 238 249 256 257 256 255 255 255 256 255 254 254 254 254 254 256 257 256 257 259 261 264 266 268 271 273 275 277 278 280 280 280 280 280 281
210 214 219 227 233 244 272 323 339 346 351 343 330 326 324 323 323 326 326 328 333 335 334 330 318 309 310 313 316 325 334 342 341 340 341 340 337 327 316 310 307 305 301 299 297 296 292 286 278 272 271 269 266 262 260 259 256 252 247 246 246 244 243 246 253 257 257 258 259 261 262 262 262 262 262 262 262 263 264 263 263 264 267 269 272 275 276 277 278 279 281 281 282 283 285 287 289
212 214 222 231 241 253 269 293 312 320 328 330 322 318 316 316 317 318 319 320 324 325 324 325 320 305 293 292 293 299 309 320 326 327 329 328 327 323 315 307 302 300 297 294 291 286 282 279 276 271 267 267 266 263 262 264 265 265 263 261 258 256 255 255 257 261 263 265 268 270 272 274 275 275 274 273 272 272 273 273 273 274 274 275 276 279 280 279 279 280 281 282 284 286 288 290 291
212 213 219 230 243 259 274 286 298 307 313 317 316 314 311 311 311 312 312 314 316 317 318 319 320 311 296 286 282 287 294 302 309 314 318 318 316 315 314 308 301 297 295 292 287 282 278 274 271 270 269 267 266 265 264 263 263 265 267 266 265 265 264 264 265 268 271 275 278 280 283 286 289 289 285 284 282 282 282 283 285 285 283 281 279 278 280 282 284 284 283 283 285 285 286 287 287
212 214 220 232 245 261 276 288 298 304 309 314 315 312 307 306 307 308 307 308 309 309 312 315 318 316 305 290 277 279 285 290 294 300 305 308 308 309 311 309 304 298 293 288 285 283 281 278 274 271 268 264 262 262 263 264 265 265 266 266 266 267 267 268 269 271 274 278 282 283 284 285 284 282 280 279 280 280 281 282 282 282 281 281 281 281 281 281 282 282 283 284 285 285 284 284 284
213 217 224 236 248 262 276 288 298 304 310 314 314 309 305 304 305 304 302 303 305 306 308 309 312 313 306 294 279 274 279 283 285 289 294 299 302 303 307 308 305 298 292 286 283 283 283 281 278 274 270 266 263 261 261 263 264 264 265 265 264 265 266 267 270 272 276 278 279 278 277 274 272 271 272 274 275 275 276 276 276 277 278 279 280 281 281 280 279 278 280 280 280 280 280 281 281
216 221 228 238 249 262 274 285 295 302 307 310 310 306 304 305 305 302 301 303 306 308 308 306 307 307 302 296 287 278 276 279 281 284 288 291 295 299 302 304 303 299 292 287 283 281 280 278 277 277 275 273 269 266 263 261 261 261 261 263 264 265 267 269 271 272 273 274 272 270 268 267 267 268 269 271 272 273 273 273 274 275 277 278 278 278 278 278 278 278 279 278 276 276 277 279 279
219 224 230 239 249 260 272 283 292 297 302 305 305 302 303 307 308 306 303 304 308 309 308 306 305 303 300 295 289 280 275 276 278 280 283 286 291 296 299 300 300 298 294 289 284 279 276 275 275 277 276 274 271 268 265 263 262 262 263 264 266 269 271 271 271 270 270 269 267 265 265 266 267 268 269 269 271 273 274 274 275 276 276 276 277 277 277 277 277 277 276 274 273 275 277 279 281
224 228 233 240 249 258 269 279 286 291 297 300 299 297 301 307 310 307 305 307 310 308 305 305 303 300 297 293 288 281 275 274 276 278 279 281 286 291 294 295 295 295 294 291 286 280 275 272 271 272 273 272 271 270 268 266 266 267 268 270 271 272 271 269 268 267 265 263 264 264 265 266 266 268 269 271 272 273 274 276 277 278 277 277 277 277 277 277 276 275 275 274 275 278 281 284 288
229 234 238 244 252 259 268 276 281 287 293 295 294 293 299 306 307 305 306 310 311 308 307 307 304 299 293 289 285 281 275 272 271 272 273 275 279 283 287 289 290 291 290 289 286 282 278 274 271 268 269 271 272 272 271 271 271 272 273 273 273 271 268 266 264 262 261 260 261 263 263 264 265 267 270 271 271 272 274 276 277 277 277 277 277 276 276 276 277 278 279 282 286 288 291 293 295
234 239 244 249 256 262 268 274 279 285 288 289 289 290 297 303 304 303 307 311 312 311 312 311 308 301 293 284 279 277 275 272 269 268 269 272 274 278 282 284 285 286 286 285 283 281 280 278 274 269 266 267 268 270 272 273 275 276 276 275 273 270 268 266 265 264 263 262 261 261 261 261 263 265 267 269 269 271 273 275 277 278 278 279 279 278 278 280 283 286 288 291 295 297 298 299 301
237 243 249 255 262 267 270 273 277 281 283 284 285 287 294 300 301 300 307 313 313 316 318 316 315 309 300 290 280 275 272 271 270 271 272 273 275 277 278 279 282 283 283 283 281 279 278 278 276 273 270 268 267 268 271 273 275 276 277 276 275 273 271 269 269 269 267 265 263 262 262 262 262 263 265 268 270 271 273 275 278 279 281 282 283 283 284 286 290 294 296 298 300 301 302 304 305
242 247 254 260 266 269 271 273 275 277 279 280 281 284 291 297 296 297 308 314 314 319 322 322 321 317 310 301 291 281 275 272 272 274 275 275 275 275 275 277 279 281 283 283 280 278 276 276 275 274 272 270 268 268 271 273 275 276 277 276 276 275 274 274 273 272 270 267 265 265 265 265 265 266 267 269 272 274 276 278 279 281 283 285 287 288 289 291 295 298 300 301 302 302 303 304 304
247 252 257 262 266 268 270 271 272 273 275 275 276 280 286 292 293 296 310 314 313 320 323 323 322 319 315 308 300 293 285 279 276 276 275 275 275 275 276 278 280 282 283 282 281 278 274 273 273 273 272 271 270 268 269 272 273 275 277 277 276 275 275 275 274 272 270 269 269 268 268 269 270 271 272 273 275 277 280 281 282 283 284 287 289 290 292 294 296 297 298 299 299 300 300 301 301
251 255 259 261 263 265 267 269 269 269 269 271 273 276 282 288 290 295 309 311 312 319 320 322 322 320 317 311 304 298 293 288 283 279 277 277 278 279 280 281 283 284 284 282 280 277 271 269 270 270 270 270 271 270 270 271 272 273 275 277 276 275 274 274 272 270 268 269 269 269 269 271 272 273 274 275 275 278 280 281 283 285 286 288 289 290 291 292 293 293 294 295 296 296 297 297 297
252 255 258 260 261 264 267 268 267 266 266 268 271 274 280 283 285 294 304 307 310 316 317 319 320 319 317 313 305 297 292 290 286 282 280 281 282 282 283 284 286 286 284 282 279 275 270 266 265 267 268 269 271 273 274 274 274 274 275 276 276 275 274 273 271 269 267 267 268 268 268 269 271 272 272 273 274 276 278 279 281 283 285 286 285 286 286 287 288 289 290 291 292 292 293 293 293
251 255 258 260 262 265 268 270 269 267 267 269 270 273 280 280 283 293 299 303 308 313 315 317 316 315 315 313 308 300 291 286 282 281 281 282 281 282 283 285 286 286 285 282 279 276 273 268 265 265 267 269 272 275 277 277 277 277 276 275 275 275 274 272 270 269 268 267 267 268 267 267 268 269 271 273 276 277 278 278 278 279 280 281 281 282 282 283 284 286 288 290 290 290 291 292 293
251 255 258 261 265 268 271 273 273 271 270 271 272 275 280 281 285 293 296 301 307 310 313 314 313 312 312 311 308 303 295 287 281 279 278 278 280 282 283 284 285 285 284 281 278 277 275 273 270 267 268 270 272 275 277 279 280 279 278 276 274 274 273 271 269 268 268 267 267 268 268 267 267 270 273 275 277 278 278 278 279 280 280 281 282 282 282 283 284 287 289 290 290 291 292 293 294
250 254 258 262 267 272 275 277 278 275 274 274 275 278 281 284 289 293 295 300 304 308 311 310 310 310 309 308 306 303 300 294 286 282 279 278 279 281 282 283 283 282 280 279 277 276 276 275 274 271 271 271 273 274 276 278 280 280 280 278 276 275 275 274 272 268 267 266 266 266 267 267 268 270 273 275 276 276 277 279 281 282 283 284 284 284 285 286 287 289 289 289 289 291 292 293 293
250 252 257 264 270 272 275 278 278 277 277 278 280 282 286 288 292 295 297 301 304 306 308 307 309 309 307 305 303 302 300 297 292 286 281 280 280 280 280 280 279 278 277 277 276 275 275 275 275 274 273 274 274 275 276 277 279 279 279 278 277 275 274 273 272 270 268 267 265 264 265 267 268 269 270 272 273 274 276 279 281 282 283 284 285 286 288 290 291 291 291 290 291 292 293 292 292
249 252 258 265 269 271 272 275 276 278 279 280 282 286 291 290 291 296 299 302 304 306 307 307 307 306 305 303 301 300 298 296 293 287 283 281 280 279 278 278 277 275 274 274 274 274 274 275 275 275 275 276 276 276 277 278 278 278 279 278 277 275 273 271 269 268 267 265 263 262 263 265 267 268 269 271 273 275 277 280 282 283 284 285 287 288 289 290 291 292 292 293 294 294 294 292 291
251 257 261 263 265 268 271 274 276 277 279 280 282 287 292 290 292 297 299 301 304 307 307 306 305 304 303 301 300 298 296 295 291 287 286 284 281 279 277 276 275 275 274 273 273 273 274 274 274 275 276 276 277 277 277 278 278 278 278 279 278 276 275 272 269 267 266 264 262 262 262 263 265 267 269 271 274 276 278 280 283 284 285 286 287 288 289 291 292 293 294 295 295 295 293 292 290
256 259 261 262 265 268 272 274 275 276 278 280 283 285 287 289 294 297 297 300 305 307 306 304 303 303 302 300 299 297 296 293 288 287 288 287 283 279 277 275 275 275 276 275 273 272 272 272 273 274 276 277 277 277 277 277 277 277 277 278 278 278 276 274 271 269 268 266 264 263 263 263 265 267 268 271 273 276 278 280 282 283 285 286 287 288 290 292 293 294 295 295 295 293 291 289 288
257 259 260 262 266 270 271 272 274 276 278 280 283 284 284 287 292 295 296 300 305 306 304 303 303 302 299 298 297 297 295 292 289 289 289 287 284 282 279 276 275 275 276 276 275 273 272 272 272 274 274 275 275 276 277 277 277 277 276 276 277 277 276 274 273 272 270 269 267 264 263 263 265 266 268 270 272 275 278 280 282 283 285 286 287 288 290 291 292 293 294 294 292 290 288 286 285
257 259 261 264 266 269 270 271 274 276 277 279 282 282 283 285 287 290 294 299 303 303 302 303 303 300 297 297 296 293 292 291 291 291 289 286 284 283 281 278 275 275 276 277 277 276 274 273 272 272 273 273 274 275 277 278 278 277 275 274 275 275 275 275 274 273 272 271 269 267 265 264 265 266 268 270 272 274 277 280 282 284 285 285 286 287 289 290 292 292 293 292 289 287 285 284 283
258 261 262 264 266 267 270 272 274 276 277 279 280 280 282 283 284 286 291 296 300 301 302 303 301 297 296 295 293 290 289 290 290 289 287 286 284 282 282 281 278 277 276 277 278 278 277 276 273 272 272 272 273 275 276 277 277 277 275 273 273 273 273 274 274 274 273 272 270 269 268 267 267 267 268 270 272 274 277 279 281 283 284 284 285 286 288 290 291 292 291 290 288 286 285 284 285
260 262 263 265 266 268 270 272 275 276 278 279 280 279 279 281 282 286 290 292 296 299 300 301 298 295 294 293 291 290 290 289 287 287 286 286 284 282 281 280 279 277 277 277 277 278 278 277 275 273 272 272 273 274 275 276 276 276 275 274 272 272 272 273 274 274 274 273 271 270 269 269 268 268 269 270 272 274 276 278 280 281 282 283 284 286 288 290 291 291 290 289 288 287 286 286 287
260 262 264 266 268 270 270 273 275 278 279 280 281 279 277 279 282 286 291 291 294 298 299 299 296 294 293 293 292 291 289 285 284 284 285 285 284 283 279 277 277 278 278 277 276 276 276 277 277 276 274 274 274 274 274 275 275 275 275 274 273 272 272 272 273 273 273 273 271 270 269 269 269 269 269 270 272 273 275 277 279 281 282 283 284 286 288 289 290 290 290 289 289 288 288 287 288
260 263 265 267 269 271 273 275 276 277 279 281 283 280 276 277 282 287 292 292 295 298 299 300 299 297 296 295 293 291 288 285 283 282 282 283 283 282 280 278 277 276 276 276 275 276 278 278 278 277 277 276 276 275 274 274 274 275 274 274 272 271 271 271 271 272 272 272 272 271 271 270 270 271 271 271 272 273 275 277 279 281 282 283 284 286 288 289 289 290 290 290 290 289 289 289 290
261 263 265 268 270 273 275 276 277 278 279 281 283 281 277 277 281 287 290 291 295 299 300 301 302 301 299 296 293 290 287 285 283 282 281 281 281 280 280 279 277 275 275 276 277 279 280 280 279 278 279 279 278 277 276 276 275 275 275 274 273 271 270 270 271 271 271 273 273 272 272 272 272 271 271 271 272 273 275 277 279 280 281 282 283 285 286 287 288 289 290 291 291 291 292 292 292
261 263 266 269 271 274 275 277 279 280 280 280 280 281 280 278 281 287 288 289 294 299 301 302 303 302 299 295 290 286 285 283 282 281 280 279 279 279 279 279 278 276 276 277 278 279 280 280 280 279 279 279 279 278 277 276 275 275 275 275 274 273 272 271 271 271 272 273 273 273 272 271 270 270 270 270 271 272 274 276 277 279 280 281 282 283 283 284 286 288 290 292 293 293 293 293 293
262 264 267 269 271 274 275 277 279 281 282 280 279 282 284 281 281 285 285 288 295 299 301 303 303 302 298 292 286 283 282 281 279 277 277 277 277 277 278 278 277 277 277 277 277 277 278 279 279 279 278 277 277 277 277 276 274 274 274 274 274 274 273 273 272 272 273 273 273 272 271 270 269 269 269 269 270 271 273 275 276 277 278 280 281 281 282 283 286 289 291 293 293 293 293 293 293
264 266 267 268 270 272 274 276 279 282 282 278 279 284 286 284 283 283 285 289 294 297 301 304 305 303 295 287 282 282 282 281 279 277 276 276 276 276 277 277 277 276 276 276 277 277 278 279 279 278 277 276 276 277 277 276 275 274 273 272 272 272 273 273 273 273 273 273 272 271 270 269 268 268 268 269 269 271 272 273 275 276 277 278 279 280 281 283 286 290 292 293 293 294 294 294 294
264 266 267 268 269 269 273 276 280 283 280 277 281 286 288 285 281 282 288 290 292 296 302 306 305 300 292 285 281 282 282 281 279 278 277 276 276 277 277 278 278 278 278 278 279 280 280 280 279 279 277 277 277 277 278 277 276 274 273 272 271 271 271 272 272 272 273 272 272 271 269 268 267 267 268 269 270 271 272 273 274 276 276 277 278 279 281 283 287 290 291 292 293 294 294 295 295
263 264 265 267 268 270 274 276 279 280 277 278 283 286 288 284 279 283 290 290 292 297 303 305 303 297 290 286 283 281 281 280 278 277 277 278 278 279 279 280 280 279 279 279 279 279 279 280 280 279 278 278 277 278 277 277 276 275 274 273 273 272 271 271 272 272 272 271 271 270 269 268 268 268 268 269 270 270 271 273 274 275 276 277 278 279 281 284 287 289 291 292 293 294 295 295 295
261 263 265 268 270 272 273 275 277 278 279 282 284 285 285 281 279 286 291 291 295 299 302 304 301 294 289 287 283 281 281 281 280 278 277 277 278 279 280 281 281 281 280 279 279 279 279 279 279 279 279 278 278 278 277 277 276 275 274 274 273 272 272 271 271 271 271 271 270 270 269 269 268 268 268 269 269 270 271 273 274 275 276 277 279 280 282 284 287 289 290 292 293 294 295 295 295
262 263 265 268 270 271 272 274 276 278 280 282 283 283 281 277 280 288 291 293 296 298 300 301 299 293 289 286 282 279 280 281 281 280 279 279 279 280 281 281 282 282 281 281 280 280 280 280 279 279 278 278 278 278 277 277 276 275 275 274 273 273 272 272 272 272 272 271 271 270 269 268 268 268 267 268 269 270 272 273 274 276 277 278 279 281 283 285 287 289 290 292 293 294 294 294 295
262 263 264 265 267 270 273 276 277 278 281 281 280 280 278 277 283 288 289 292 294 296 298 298 297 295 289 285 281 277 277 278 279 280 280 281 282 282 282 282 282 282 282 282 282 283 282 281 280 279 279 278 279 279 278 277 276 276 275 274 274 273 273 273 273 273 272 272 271 270 269 268 268 268 268 269 270 272 273 274 275 276 277 278 280 282 283 285 286 288 289 291 292 293 294 294 295
260 261 262 263 267 272 275 276 277 279 280 278 277 277 277 280 286 288 288 290 291 294 295 294 295 294 290 287 283 278 275 275 276 278 279 280 281 282 283 282 282 282 281 281 282 282 282 281 281 280 280 280 280 280 280 279 278 277 276 275 274 274 274 274 274 274 273 272 271 270 269 268 268 268 268 270 271 272 273 274 275 276 277 279 280 282 283 285 286 288 289 290 292 293 294 295 296
261 261 262 265 270 273 273 274 276 278 278 277 277 277 278 282 285 286 288 290 291 293 293 292 292 292 290 289 285 280 278 276 276 277 279 279 280 281 282 281 280 280 280 280 280 280 280 280 280 280 280 281 281 281 281 280 279 278 277 276 276 276 275 275 274 274 273 271 270 269 268 268 268 269 270 271 272 273 274 275 276 277 278 279 281 282 284 285 286 288 289 291 292 293 295 296 297
260 261 264 267 269 269 270 272 274 276 277 277 278 278 279 281 282 283 287 289 289 290 289 288 288 289 289 288 286 283 281 279 279 279 279 279 281 282 281 280 279 279 279 280 280 280 280 280 279 280 280 281 281 281 281 280 280 279 278 277 276 276 276 275 274 272 271 270 269 269 269 269 270 271 271 272 273 273 274 275 276 277 279 280 281 282 284 285 287 288 290 291 292 294 295 296 297
261 263 264 266 266 266 268 270 272 274 276 277 278 278 279 279 279 282 287 287 287 287 285 285 285 285 286 287 286 284 282 281 281 280 280 279 280 281 280 279 278 278 278 279 280 280 280 279 279 279 279 280 280 280 281 281 280 279 278 276 276 275 274 274 273 272 271 270 270 270 270 270 271 272 272 273 273 274 275 276 277 278 279 280 281 283 284 285 287 288 290 291 293 294 295 296 296
261 263 264 264 264 266 268 269 271 273 275 277 277 277 277 277 279 283 285 285 285 285 284 283 284 283 284 285 284 282 282 282 282 281 281 280 279 279 279 278 277 278 278 278 279 279 279 279 278 277 278 278 279 279 279 279 278 277 276 274 273 273 272 272 271 270 270 269 270 270 270 271 271 272 272 273 274 274 275 276 277 278 279 281 282 283 285 286 287 289 290 292 293 294 295 295 296
262 263 263 264 265 267 267 268 269 271 273 276 277 276 275 277 281 283 283 284 283 281 280 281 282 282 282 280 279 280 281 282 282 282 281 280 279 278 279 278 278 278 279 279 279 279 279 279 279 279 279 279 280 281 280 280 278 276 274 273 272 271 271 271 270 269 269 269 269 269 270 270 271 272 272 273 274 275 275 276 277 278 279 281 283 284 285 286 287 289 291 292 293 293 294 295 296
261 261 262 263 264 266 266 267 269 270 271 273 275 276 276 278 281 281 281 282 278 276 280 281 280 281 280 278 277 277 279 281 283 284 282 280 279 279 279 278 278 280 281 281 281 282 282 283 283 283 284 285 286 286 285 283 281 278 276 273 272 271 270 270 270 269 269 268 269 269 270 270 271 272 272 273 274 274 275 276 277 279 280 282 283 284 285 286 288 290 291 291 292 293 294 295 296
259 259 260 262 263 264 265 266 267 268 269 271 274 276 276 277 280 280 280 278 275 276 282 283 281 281 279 277 277 276 278 281 284 284 283 281 280 280 280 280 280 281 282 283 284 285 286 286 287 288 289 289 290 290 289 287 285 282 279 277 275 273 272 271 271 270 269 269 269 269 270 270 271 271 272 273 274 275 276 277 278 280 282 283 284 284 285 287 288 289 290 291 292 294 295 295 297